Year,Month,Day,Hour,Minute,Value (Times are PST for temperature in C)
2011,08,20,00,00,13.90
2011,08,20,00,01,13.90
2011,08,20,00,02,13.90
2011,08,20,00,03,13.90
2011,08,20,00,04,13.90
2011,08,20,00,05,13.90
2011,08,20,00,06,13.90
2011,08,20,00,07,13.90
2011,08,20,00,08,13.90
2011,08,20,00,09,13.90
2011,08,20,00,10,13.80
2011,08,20,00,11,13.80
2011,08,20,00,12,13.80
2011,08,20,00,13,13.80
2011,08,20,00,14,13.80
2011,08,20,00,15,13.80
2011,08,20,00,16,13.80
2011,08,20,00,17,13.70
2011,08,20,00,18,13.70
2011,08,20,00,19,13.70
2011,08,20,00,20,13.70
2011,08,20,00,21,13.70
2011,08,20,00,22,13.70
2011,08,20,00,23,13.70
2011,08,20,00,24,13.70
2011,08,20,00,25,13.70
2011,08,20,00,26,13.70
2011,08,20,00,27,13.60
2011,08,20,00,28,13.60
2011,08,20,00,29,13.60
2011,08,20,00,30,13.60
2011,08,20,00,31,13.50
2011,08,20,00,32,13.50
2011,08,20,00,33,13.50
2011,08,20,00,34,13.50
2011,08,20,00,35,13.50
2011,08,20,00,36,13.40
2011,08,20,00,37,13.40
2011,08,20,00,38,13.40
2011,08,20,00,39,13.40
2011,08,20,00,40,13.40
2011,08,20,00,41,13.30
2011,08,20,00,42,13.30
2011,08,20,00,43,13.30
2011,08,20,00,44,13.30
2011,08,20,00,45,13.30
2011,08,20,00,46,13.20
2011,08,20,00,47,13.20
2011,08,20,00,48,13.20
2011,08,20,00,49,13.20
2011,08,20,00,50,13.20
2011,08,20,00,51,13.20
2011,08,20,00,52,13.20
2011,08,20,00,53,13.20
2011,08,20,00,54,13.10
2011,08,20,00,55,13.10
2011,08,20,00,56,13.10
2011,08,20,00,57,13.10
2011,08,20,00,58,13.10
2011,08,20,00,59,13.10
2011,08,20,01,00,13.10
2011,08,20,01,01,13.10
2011,08,20,01,02,13.10
2011,08,20,01,03,13.10
2011,08,20,01,04,13.10
2011,08,20,01,05,13.10
2011,08,20,01,06,13.10
2011,08,20,01,07,13.00
2011,08,20,01,08,13.00
2011,08,20,01,09,13.00
2011,08,20,01,10,13.00
2011,08,20,01,11,12.90
2011,08,20,01,12,12.90
2011,08,20,01,13,12.90
2011,08,20,01,14,12.80
2011,08,20,01,15,12.80
2011,08,20,01,16,12.80
2011,08,20,01,17,12.80
2011,08,20,01,18,12.80
2011,08,20,01,19,12.80
2011,08,20,01,20,12.80
2011,08,20,01,21,12.80
2011,08,20,01,22,12.80
2011,08,20,01,23,12.80
2011,08,20,01,24,12.70
2011,08,20,01,25,12.70
2011,08,20,01,26,12.70
2011,08,20,01,27,12.70
2011,08,20,01,28,12.70
2011,08,20,01,29,12.70
2011,08,20,01,30,12.70
2011,08,20,01,31,12.70
2011,08,20,01,32,12.70
2011,08,20,01,33,12.70
2011,08,20,01,34,12.70
2011,08,20,01,35,12.70
2011,08,20,01,36,12.70
2011,08,20,01,37,12.70
2011,08,20,01,38,12.70
2011,08,20,01,39,12.60
2011,08,20,01,40,12.60
2011,08,20,01,41,12.60
2011,08,20,01,42,12.60
2011,08,20,01,43,12.60
2011,08,20,01,44,12.60
2011,08,20,01,45,12.60
2011,08,20,01,46,12.60
2011,08,20,01,47,12.60
2011,08,20,01,48,12.50
2011,08,20,01,49,12.50
2011,08,20,01,50,12.50
2011,08,20,01,51,12.50
2011,08,20,01,52,12.50
2011,08,20,01,53,12.40
2011,08,20,01,54,12.40
2011,08,20,01,55,12.40
2011,08,20,01,56,12.40
2011,08,20,01,57,12.40
2011,08,20,01,58,12.40
2011,08,20,01,59,12.30
2011,08,20,02,00,12.30
2011,08,20,02,01,12.30
2011,08,20,02,02,12.30
2011,08,20,02,03,12.30
2011,08,20,02,04,12.30
2011,08,20,02,05,12.30
2011,08,20,02,06,12.30
2011,08,20,02,07,12.30
2011,08,20,02,08,12.30
2011,08,20,02,09,12.30
2011,08,20,02,10,12.30
2011,08,20,02,11,12.30
2011,08,20,02,12,12.30
2011,08,20,02,13,12.30
2011,08,20,02,14,12.30
2011,08,20,02,15,12.30
2011,08,20,02,16,12.30
2011,08,20,02,17,12.30
2011,08,20,02,18,12.30
2011,08,20,02,19,12.30
2011,08,20,02,20,12.30
2011,08,20,02,21,12.30
2011,08,20,02,22,12.30
2011,08,20,02,23,12.30
2011,08,20,02,24,12.30
2011,08,20,02,25,12.30
2011,08,20,02,26,12.30
2011,08,20,02,27,12.30
2011,08,20,02,28,12.20
2011,08,20,02,29,12.20
2011,08,20,02,30,12.20
2011,08,20,02,31,12.20
2011,08,20,02,32,12.20
2011,08,20,02,33,12.20
2011,08,20,02,34,12.10
2011,08,20,02,35,12.10
2011,08,20,02,36,12.10
2011,08,20,02,37,12.10
2011,08,20,02,38,12.10
2011,08,20,02,39,12.10
2011,08,20,02,40,12.00
2011,08,20,02,41,12.00
2011,08,20,02,42,12.00
2011,08,20,02,43,12.00
2011,08,20,02,44,12.00
2011,08,20,02,45,12.00
2011,08,20,02,46,12.00
2011,08,20,02,47,12.00
2011,08,20,02,48,12.00
2011,08,20,02,49,12.00
2011,08,20,02,50,11.90
2011,08,20,02,51,11.90
2011,08,20,02,52,11.90
2011,08,20,02,53,11.90
2011,08,20,02,54,11.90
2011,08,20,02,55,11.80
2011,08,20,02,56,11.80
2011,08,20,02,57,11.80
2011,08,20,02,58,11.80
2011,08,20,02,59,11.80
2011,08,20,03,00,11.80
2011,08,20,03,01,11.80
2011,08,20,03,02,11.80
2011,08,20,03,03,11.80
2011,08,20,03,04,11.80
2011,08,20,03,05,11.80
2011,08,20,03,06,11.80
2011,08,20,03,07,11.80
2011,08,20,03,08,11.80
2011,08,20,03,09,11.80
2011,08,20,03,10,11.80
2011,08,20,03,11,11.80
2011,08,20,03,12,11.80
2011,08,20,03,13,11.80
2011,08,20,03,14,11.80
2011,08,20,03,15,11.80
2011,08,20,03,16,11.80
2011,08,20,03,17,11.80
2011,08,20,03,18,11.70
2011,08,20,03,19,11.70
2011,08,20,03,20,11.70
2011,08,20,03,21,11.70
2011,08,20,03,22,11.70
2011,08,20,03,23,11.70
2011,08,20,03,24,11.70
2011,08,20,03,25,11.70
2011,08,20,03,26,11.60
2011,08,20,03,27,11.60
2011,08,20,03,28,11.60
2011,08,20,03,29,11.60
2011,08,20,03,30,11.60
2011,08,20,03,31,11.60
2011,08,20,03,32,11.60
2011,08,20,03,33,11.60
2011,08,20,03,34,11.60
2011,08,20,03,35,11.60
2011,08,20,03,36,11.60
2011,08,20,03,37,11.60
2011,08,20,03,38,11.60
2011,08,20,03,39,11.60
2011,08,20,03,40,11.60
2011,08,20,03,41,11.60
2011,08,20,03,42,11.50
2011,08,20,03,43,11.50
2011,08,20,03,44,11.60
2011,08,20,03,45,11.60
2011,08,20,03,46,11.60
2011,08,20,03,47,11.60
2011,08,20,03,48,11.60
2011,08,20,03,49,11.60
2011,08,20,03,50,11.50
2011,08,20,03,51,11.40
2011,08,20,03,52,11.40
2011,08,20,03,53,11.40
2011,08,20,03,54,11.40
2011,08,20,03,55,11.40
2011,08,20,03,56,11.40
2011,08,20,03,57,11.30
2011,08,20,03,58,11.30
2011,08,20,03,59,11.30
2011,08,20,04,00,11.30
2011,08,20,04,01,11.30
2011,08,20,04,02,11.30
2011,08,20,04,03,11.30
2011,08,20,04,04,11.30
2011,08,20,04,05,11.30
2011,08,20,04,06,11.30
2011,08,20,04,07,11.30
2011,08,20,04,08,11.30
2011,08,20,04,09,11.30
2011,08,20,04,10,11.30
2011,08,20,04,11,11.30
2011,08,20,04,12,11.30
2011,08,20,04,13,11.30
2011,08,20,04,14,11.20
2011,08,20,04,15,11.20
2011,08,20,04,16,11.20
2011,08,20,04,17,11.20
2011,08,20,04,18,11.10
2011,08,20,04,19,11.10
2011,08,20,04,20,11.10
2011,08,20,04,21,11.10
2011,08,20,04,22,11.10
2011,08,20,04,23,11.10
2011,08,20,04,24,11.10
2011,08,20,04,25,11.10
2011,08,20,04,26,11.10
2011,08,20,04,27,11.10
2011,08,20,04,28,11.10
2011,08,20,04,29,11.10
2011,08,20,04,30,11.10
2011,08,20,04,31,11.10
2011,08,20,04,32,11.10
2011,08,20,04,33,11.10
2011,08,20,04,34,11.10
2011,08,20,04,35,11.10
2011,08,20,04,36,11.10
2011,08,20,04,37,11.10
2011,08,20,04,38,11.10
2011,08,20,04,39,11.10
2011,08,20,04,40,11.10
2011,08,20,04,41,11.10
2011,08,20,04,42,11.10
2011,08,20,04,43,11.10
2011,08,20,04,44,11.10
2011,08,20,04,45,11.10
2011,08,20,04,46,11.10
2011,08,20,04,47,11.00
2011,08,20,04,48,10.90
2011,08,20,04,49,10.90
2011,08,20,04,50,10.90
2011,08,20,04,51,10.90
2011,08,20,04,52,10.90
2011,08,20,04,53,10.90
2011,08,20,04,54,10.90
2011,08,20,04,55,10.90
2011,08,20,04,56,10.90
2011,08,20,04,57,10.90
2011,08,20,04,58,10.90
2011,08,20,04,59,10.90
2011,08,20,05,00,10.90
2011,08,20,05,01,10.90
2011,08,20,05,02,10.90
2011,08,20,05,03,10.90
2011,08,20,05,04,10.90
2011,08,20,05,05,10.80
2011,08,20,05,06,10.80
2011,08,20,05,07,10.80
2011,08,20,05,08,10.80
2011,08,20,05,09,10.80
2011,08,20,05,10,10.80
2011,08,20,05,11,10.80
2011,08,20,05,12,10.80
2011,08,20,05,13,10.80
2011,08,20,05,14,10.80
2011,08,20,05,15,10.70
2011,08,20,05,16,10.70
2011,08,20,05,17,10.70
2011,08,20,05,18,10.70
2011,08,20,05,19,10.70
2011,08,20,05,20,10.80
2011,08,20,05,21,10.80
2011,08,20,05,22,10.80
2011,08,20,05,23,10.80
2011,08,20,05,24,10.80
2011,08,20,05,25,10.80
2011,08,20,05,26,10.80
2011,08,20,05,27,10.80
2011,08,20,05,28,10.80
2011,08,20,05,29,10.80
2011,08,20,05,30,10.80
2011,08,20,05,31,10.80
2011,08,20,05,32,10.80
2011,08,20,05,33,10.80
2011,08,20,05,34,10.80
2011,08,20,05,35,10.80
2011,08,20,05,36,10.80
2011,08,20,05,37,10.80
2011,08,20,05,38,10.80
2011,08,20,05,39,10.80
2011,08,20,05,40,10.80
2011,08,20,05,41,10.80
2011,08,20,05,42,10.80
2011,08,20,05,43,10.80
2011,08,20,05,44,10.80
2011,08,20,05,45,10.70
2011,08,20,05,46,10.70
2011,08,20,05,47,10.70
2011,08,20,05,48,10.70
2011,08,20,05,49,10.70
2011,08,20,05,50,10.70
2011,08,20,05,51,10.70
2011,08,20,05,52,10.70
2011,08,20,05,53,10.70
2011,08,20,05,54,10.70
2011,08,20,05,55,10.60
2011,08,20,05,56,10.60
2011,08,20,05,57,10.60
2011,08,20,05,58,10.60
2011,08,20,05,59,10.60
2011,08,20,06,00,10.60
2011,08,20,06,01,10.60
2011,08,20,06,02,10.60
2011,08,20,06,03,10.60
2011,08,20,06,04,10.60
2011,08,20,06,05,10.60
2011,08,20,06,06,10.60
2011,08,20,06,07,10.60
2011,08,20,06,08,10.60
2011,08,20,06,09,10.60
2011,08,20,06,10,10.60
2011,08,20,06,11,10.60
2011,08,20,06,12,10.60
2011,08,20,06,13,10.60
2011,08,20,06,14,10.60
2011,08,20,06,15,10.60
2011,08,20,06,16,10.60
2011,08,20,06,17,10.50
2011,08,20,06,18,10.40
2011,08,20,06,19,10.40
2011,08,20,06,20,10.40
2011,08,20,06,21,10.40
2011,08,20,06,22,10.40
2011,08,20,06,23,10.40
2011,08,20,06,24,10.40
2011,08,20,06,25,10.50
2011,08,20,06,26,10.60
2011,08,20,06,27,10.60
2011,08,20,06,28,10.60
2011,08,20,06,29,10.60
2011,08,20,06,30,10.60
2011,08,20,06,31,10.60
2011,08,20,06,32,10.60
2011,08,20,06,33,10.60
2011,08,20,06,34,10.70
2011,08,20,06,35,10.70
2011,08,20,06,36,10.70
2011,08,20,06,37,10.80
2011,08,20,06,38,10.80
2011,08,20,06,39,10.80
2011,08,20,06,40,10.90
2011,08,20,06,41,10.90
2011,08,20,06,42,10.90
2011,08,20,06,43,10.90
2011,08,20,06,44,10.90
2011,08,20,06,45,10.90
2011,08,20,06,46,10.90
2011,08,20,06,47,10.90
2011,08,20,06,48,10.90
2011,08,20,06,49,10.90
2011,08,20,06,50,10.90
2011,08,20,06,51,10.90
2011,08,20,06,52,10.90
2011,08,20,06,53,10.90
2011,08,20,06,54,10.90
2011,08,20,06,55,10.90
2011,08,20,06,56,11.10
2011,08,20,06,57,11.10
2011,08,20,06,58,11.10
2011,08,20,06,59,11.10
2011,08,20,07,00,11.20
2011,08,20,07,01,11.20
2011,08,20,07,02,11.30
2011,08,20,07,03,11.40
2011,08,20,07,04,11.40
2011,08,20,07,05,11.50
2011,08,20,07,06,11.60
2011,08,20,07,07,11.70
2011,08,20,07,08,11.70
2011,08,20,07,09,11.80
2011,08,20,07,10,11.80
2011,08,20,07,11,11.90
2011,08,20,07,12,11.90
2011,08,20,07,13,12.00
2011,08,20,07,14,12.10
2011,08,20,07,15,12.20
2011,08,20,07,16,12.30
2011,08,20,07,17,12.30
2011,08,20,07,18,12.30
2011,08,20,07,19,12.40
2011,08,20,07,20,12.40
2011,08,20,07,21,12.50
2011,08,20,07,22,12.50
2011,08,20,07,23,12.60
2011,08,20,07,24,12.70
2011,08,20,07,25,12.80
2011,08,20,07,26,12.90
2011,08,20,07,27,13.00
2011,08,20,07,28,13.10
2011,08,20,07,29,13.20
2011,08,20,07,30,13.30
2011,08,20,07,31,13.40
2011,08,20,07,32,13.50
2011,08,20,07,33,13.60
2011,08,20,07,34,13.60
2011,08,20,07,35,13.70
2011,08,20,07,36,13.80
2011,08,20,07,37,13.90
2011,08,20,07,38,13.90
2011,08,20,07,39,14.00
2011,08,20,07,40,14.20
2011,08,20,07,41,14.30
2011,08,20,07,42,14.30
2011,08,20,07,43,14.40
2011,08,20,07,44,14.50
2011,08,20,07,45,14.60
2011,08,20,07,46,14.60
2011,08,20,07,47,14.70
2011,08,20,07,48,14.80
2011,08,20,07,49,14.80
2011,08,20,07,50,14.90
2011,08,20,07,51,15.00
2011,08,20,07,52,15.10
2011,08,20,07,53,15.20
2011,08,20,07,54,15.20
2011,08,20,07,55,15.30
2011,08,20,07,56,15.30
2011,08,20,07,57,15.40
2011,08,20,07,58,15.50
2011,08,20,07,59,15.50
2011,08,20,08,00,15.60
2011,08,20,08,01,15.60
2011,08,20,08,02,15.60
2011,08,20,08,03,15.60
2011,08,20,08,04,15.50
2011,08,20,08,05,15.50
2011,08,20,08,06,15.50
2011,08,20,08,07,15.50
2011,08,20,08,08,15.50
2011,08,20,08,09,15.50
2011,08,20,08,10,15.50
2011,08,20,08,11,15.50
2011,08,20,08,12,15.50
2011,08,20,08,13,15.60
2011,08,20,08,14,15.60
2011,08,20,08,15,15.70
2011,08,20,08,16,15.80
2011,08,20,08,17,15.80
2011,08,20,08,18,15.90
2011,08,20,08,19,16.00
2011,08,20,08,20,16.10
2011,08,20,08,21,16.10
2011,08,20,08,22,16.20
2011,08,20,08,23,16.30
2011,08,20,08,24,16.40
2011,08,20,08,25,16.40
2011,08,20,08,26,16.50
2011,08,20,08,27,16.60
2011,08,20,08,28,16.70
2011,08,20,08,29,16.80
2011,08,20,08,30,16.90
2011,08,20,08,31,17.00
2011,08,20,08,32,17.10
2011,08,20,08,33,17.30
2011,08,20,08,34,17.40
2011,08,20,08,35,17.50
2011,08,20,08,36,17.60
2011,08,20,08,37,17.80
2011,08,20,08,38,17.90
2011,08,20,08,39,18.00
2011,08,20,08,40,18.10
2011,08,20,08,41,18.20
2011,08,20,08,42,18.40
2011,08,20,08,43,18.50
2011,08,20,08,44,18.60
2011,08,20,08,45,18.70
2011,08,20,08,46,18.90
2011,08,20,08,47,19.10
2011,08,20,08,48,19.20
2011,08,20,08,49,19.40
2011,08,20,08,50,19.50
2011,08,20,08,51,19.60
2011,08,20,08,52,19.80
2011,08,20,08,53,19.90
2011,08,20,08,54,20.00
2011,08,20,08,55,20.10
2011,08,20,08,56,20.20
2011,08,20,08,57,20.20
2011,08,20,08,58,20.30
2011,08,20,08,59,20.40
2011,08,20,09,00,20.50
2011,08,20,09,01,20.60
2011,08,20,09,02,20.70
2011,08,20,09,03,20.80
2011,08,20,09,04,20.90
2011,08,20,09,05,21.00
2011,08,20,09,06,21.00
2011,08,20,09,07,21.10
2011,08,20,09,08,21.30
2011,08,20,09,09,21.30
2011,08,20,09,10,21.40
2011,08,20,09,11,21.50
2011,08,20,09,12,21.60
2011,08,20,09,13,21.60
2011,08,20,09,14,21.70
2011,08,20,09,15,21.70
2011,08,20,09,16,21.70
2011,08,20,09,17,21.70
2011,08,20,09,18,21.70
2011,08,20,09,19,21.70
2011,08,20,09,20,21.80
2011,08,20,09,21,21.90
2011,08,20,09,22,21.90
2011,08,20,09,23,21.90
2011,08,20,09,24,22.00
2011,08,20,09,25,22.00
2011,08,20,09,26,22.10
2011,08,20,09,27,22.10
2011,08,20,09,28,22.10
2011,08,20,09,29,22.10
2011,08,20,09,30,22.20
2011,08,20,09,31,22.20
2011,08,20,09,32,22.20
2011,08,20,09,33,22.20
2011,08,20,09,34,22.30
2011,08,20,09,35,22.30
2011,08,20,09,36,22.30
2011,08,20,09,37,22.30
2011,08,20,09,38,22.30
2011,08,20,09,39,22.30
2011,08,20,09,40,22.30
2011,08,20,09,41,22.40
2011,08,20,09,42,22.40
2011,08,20,09,43,22.40
2011,08,20,09,44,22.40
2011,08,20,09,45,22.40
2011,08,20,09,46,22.30
2011,08,20,09,47,22.30
2011,08,20,09,48,22.30
2011,08,20,09,49,22.30
2011,08,20,09,50,22.30
2011,08,20,09,51,22.30
2011,08,20,09,52,22.30
2011,08,20,09,53,22.30
2011,08,20,09,54,22.30
2011,08,20,09,55,22.30
2011,08,20,09,56,22.30
2011,08,20,09,57,22.30
2011,08,20,09,58,22.20
2011,08,20,09,59,22.30
2011,08,20,10,00,22.30
2011,08,20,10,01,22.30
2011,08,20,10,02,22.30
2011,08,20,10,03,22.30
2011,08,20,10,04,22.40
2011,08,20,10,05,22.40
2011,08,20,10,06,22.40
2011,08,20,10,07,22.50
2011,08,20,10,08,22.50
2011,08,20,10,09,22.50
2011,08,20,10,10,22.50
2011,08,20,10,11,22.50
2011,08,20,10,12,22.40
2011,08,20,10,13,22.40
2011,08,20,10,14,22.40
2011,08,20,10,15,22.40
2011,08,20,10,16,22.50
2011,08,20,10,17,22.50
2011,08,20,10,18,22.60
2011,08,20,10,19,22.60
2011,08,20,10,20,22.60
2011,08,20,10,21,22.60
2011,08,20,10,22,22.70
2011,08,20,10,23,22.70
2011,08,20,10,24,22.70
2011,08,20,10,25,22.70
2011,08,20,10,26,22.70
2011,08,20,10,27,22.70
2011,08,20,10,28,22.70
2011,08,20,10,29,22.80
2011,08,20,10,30,22.80
2011,08,20,10,31,22.80
2011,08,20,10,32,22.70
2011,08,20,10,33,22.70
2011,08,20,10,34,22.60
2011,08,20,10,35,22.60
2011,08,20,10,36,22.50
2011,08,20,10,37,22.50
2011,08,20,10,38,22.50
2011,08,20,10,39,22.60
2011,08,20,10,40,22.60
2011,08,20,10,41,22.80
2011,08,20,10,42,22.90
2011,08,20,10,43,22.90
2011,08,20,10,44,22.90
2011,08,20,10,45,23.10
2011,08,20,10,46,23.10
2011,08,20,10,47,23.10
2011,08,20,10,48,23.20
2011,08,20,10,49,23.20
2011,08,20,10,50,23.10
2011,08,20,10,51,23.00
2011,08,20,10,52,22.90
2011,08,20,10,53,22.90
2011,08,20,10,54,23.00
2011,08,20,10,55,23.10
2011,08,20,10,56,23.20
2011,08,20,10,57,23.30
2011,08,20,10,58,23.40
2011,08,20,10,59,23.40
2011,08,20,11,00,23.30
2011,08,20,11,01,23.30
2011,08,20,11,02,23.30
2011,08,20,11,03,23.20
2011,08,20,11,04,23.20
2011,08,20,11,05,23.10
2011,08,20,11,06,23.10
2011,08,20,11,07,23.10
2011,08,20,11,08,23.10
2011,08,20,11,09,23.20
2011,08,20,11,10,23.20
2011,08,20,11,11,23.30
2011,08,20,11,12,23.30
2011,08,20,11,13,23.20
2011,08,20,11,14,23.30
2011,08,20,11,15,23.30
2011,08,20,11,16,23.30
2011,08,20,11,17,23.30
2011,08,20,11,18,23.30
2011,08,20,11,19,23.30
2011,08,20,11,20,23.30
2011,08,20,11,21,23.30
2011,08,20,11,22,23.30
2011,08,20,11,23,23.30
2011,08,20,11,24,23.40
2011,08,20,11,25,23.50
2011,08,20,11,26,23.60
2011,08,20,11,27,23.60
2011,08,20,11,28,23.60
2011,08,20,11,29,23.70
2011,08,20,11,30,23.70
2011,08,20,11,31,23.70
2011,08,20,11,32,23.70
2011,08,20,11,33,23.70
2011,08,20,11,34,23.70
2011,08,20,11,35,23.70
2011,08,20,11,36,23.70
2011,08,20,11,37,23.70
2011,08,20,11,38,23.70
2011,08,20,11,39,23.70
2011,08,20,11,40,23.70
2011,08,20,11,41,23.70
2011,08,20,11,42,23.70
2011,08,20,11,43,23.70
2011,08,20,11,44,23.70
2011,08,20,11,45,23.80
2011,08,20,11,46,23.80
2011,08,20,11,47,23.90
2011,08,20,11,48,23.90
2011,08,20,11,49,23.90
2011,08,20,11,50,23.90
2011,08,20,11,51,23.90
2011,08,20,11,52,23.90
2011,08,20,11,53,23.90
2011,08,20,11,54,24.00
2011,08,20,11,55,24.10
2011,08,20,11,56,24.10
2011,08,20,11,57,24.10
2011,08,20,11,58,24.10
2011,08,20,11,59,24.10
2011,08,20,12,00,24.10
2011,08,20,12,01,24.10
2011,08,20,12,02,24.10
2011,08,20,12,03,24.30
2011,08,20,12,04,24.40
2011,08,20,12,05,24.40
2011,08,20,12,06,24.40
2011,08,20,12,07,24.50
2011,08,20,12,08,24.50
2011,08,20,12,09,24.50
2011,08,20,12,10,24.50
2011,08,20,12,11,24.40
2011,08,20,12,12,24.40
2011,08,20,12,13,24.40
2011,08,20,12,14,24.30
2011,08,20,12,15,24.30
2011,08,20,12,16,24.30
2011,08,20,12,17,24.30
2011,08,20,12,18,24.40
2011,08,20,12,19,24.50
2011,08,20,12,20,24.60
2011,08,20,12,21,24.70
2011,08,20,12,22,24.70
2011,08,20,12,23,24.70
2011,08,20,12,24,24.70
2011,08,20,12,25,24.70
2011,08,20,12,26,24.70
2011,08,20,12,27,24.80
2011,08,20,12,28,24.80
2011,08,20,12,29,24.80
2011,08,20,12,30,24.60
2011,08,20,12,31,24.60
2011,08,20,12,32,24.50
2011,08,20,12,33,24.50
2011,08,20,12,34,24.50
2011,08,20,12,35,24.50
2011,08,20,12,36,24.60
2011,08,20,12,37,24.60
2011,08,20,12,38,24.60
2011,08,20,12,39,24.50
2011,08,20,12,40,24.50
2011,08,20,12,41,24.50
2011,08,20,12,42,24.50
2011,08,20,12,43,24.50
2011,08,20,12,44,24.60
2011,08,20,12,45,24.70
2011,08,20,12,46,24.70
2011,08,20,12,47,24.60
2011,08,20,12,48,24.60
2011,08,20,12,49,24.60
2011,08,20,12,50,24.70
2011,08,20,12,51,24.70
2011,08,20,12,52,24.80
2011,08,20,12,53,24.80
2011,08,20,12,54,24.90
2011,08,20,12,55,25.00
2011,08,20,12,56,25.00
2011,08,20,12,57,25.00
2011,08,20,12,58,25.10
2011,08,20,12,59,25.10
2011,08,20,13,00,25.10
2011,08,20,13,01,25.10
2011,08,20,13,02,25.20
2011,08,20,13,03,25.30
2011,08,20,13,04,25.20
2011,08,20,13,05,25.20
2011,08,20,13,06,25.20
2011,08,20,13,07,25.20
2011,08,20,13,08,25.20
2011,08,20,13,09,25.30
2011,08,20,13,10,25.30
2011,08,20,13,11,25.40
2011,08,20,13,12,25.40
2011,08,20,13,13,25.50
2011,08,20,13,14,25.50
2011,08,20,13,15,25.60
2011,08,20,13,16,25.60
2011,08,20,13,17,25.60
2011,08,20,13,18,25.40
2011,08,20,13,19,25.40
2011,08,20,13,20,25.50
2011,08,20,13,21,25.60
2011,08,20,13,22,25.70
2011,08,20,13,23,25.70
2011,08,20,13,24,25.80
2011,08,20,13,25,25.80
2011,08,20,13,26,25.90
2011,08,20,13,27,26.00
2011,08,20,13,28,26.10
2011,08,20,13,29,26.20
2011,08,20,13,30,26.30
2011,08,20,13,31,26.30
2011,08,20,13,32,26.30
2011,08,20,13,33,26.30
2011,08,20,13,34,26.10
2011,08,20,13,35,26.00
2011,08,20,13,36,26.00
2011,08,20,13,37,26.10
2011,08,20,13,38,26.10
2011,08,20,13,39,26.20
2011,08,20,13,40,26.20
2011,08,20,13,41,26.10
2011,08,20,13,42,26.10
2011,08,20,13,43,26.10
2011,08,20,13,44,26.10
2011,08,20,13,45,26.10
2011,08,20,13,46,26.00
2011,08,20,13,47,26.00
2011,08,20,13,48,26.00
2011,08,20,13,49,26.10
2011,08,20,13,50,26.10
2011,08,20,13,51,26.10
2011,08,20,13,52,26.20
2011,08,20,13,53,26.20
2011,08,20,13,54,26.30
2011,08,20,13,55,26.40
2011,08,20,13,56,26.40
2011,08,20,13,57,26.50
2011,08,20,13,58,26.60
2011,08,20,13,59,26.60
2011,08,20,14,00,26.70
2011,08,20,14,01,26.70
2011,08,20,14,02,26.70
2011,08,20,14,03,26.70
2011,08,20,14,04,26.70
2011,08,20,14,05,26.60
2011,08,20,14,06,26.60
2011,08,20,14,07,26.60
2011,08,20,14,08,26.60
2011,08,20,14,09,26.60
2011,08,20,14,10,26.60
2011,08,20,14,11,26.60
2011,08,20,14,12,26.60
2011,08,20,14,13,26.70
2011,08,20,14,14,26.70
2011,08,20,14,15,26.70
2011,08,20,14,16,26.70
2011,08,20,14,17,26.70
2011,08,20,14,18,26.80
2011,08,20,14,19,26.80
2011,08,20,14,20,26.90
2011,08,20,14,21,27.00
2011,08,20,14,22,27.10
2011,08,20,14,23,27.20
2011,08,20,14,24,27.30
2011,08,20,14,25,27.30
2011,08,20,14,26,27.30
2011,08,20,14,27,27.10
2011,08,20,14,28,27.00
2011,08,20,14,29,26.80
2011,08,20,14,30,26.60
2011,08,20,14,31,26.30
2011,08,20,14,32,26.10
2011,08,20,14,33,26.00
2011,08,20,14,34,25.90
2011,08,20,14,35,25.80
2011,08,20,14,36,25.60
2011,08,20,14,37,25.50
2011,08,20,14,38,25.40
2011,08,20,14,39,25.20
2011,08,20,14,40,25.00
2011,08,20,14,41,24.80
2011,08,20,14,42,24.70
2011,08,20,14,43,24.60
2011,08,20,14,44,24.40
2011,08,20,14,45,24.30
2011,08,20,14,46,24.30
2011,08,20,14,47,24.20
2011,08,20,14,48,24.10
2011,08,20,14,49,24.10
2011,08,20,14,50,24.00
2011,08,20,14,51,23.90
2011,08,20,14,52,23.80
2011,08,20,14,53,23.80
2011,08,20,14,54,23.80
2011,08,20,14,55,23.80
2011,08,20,14,56,23.90
2011,08,20,14,57,24.00
2011,08,20,14,58,24.10
2011,08,20,14,59,24.20
2011,08,20,15,00,24.20
2011,08,20,15,01,24.30
2011,08,20,15,02,24.30
2011,08,20,15,03,24.20
2011,08,20,15,04,24.10
2011,08,20,15,05,24.10
2011,08,20,15,06,24.20
2011,08,20,15,07,24.30
2011,08,20,15,08,24.30
2011,08,20,15,09,24.30
2011,08,20,15,10,24.20
2011,08,20,15,11,24.20
2011,08,20,15,12,24.20
2011,08,20,15,13,24.20
2011,08,20,15,14,24.30
2011,08,20,15,15,24.30
2011,08,20,15,16,24.20
2011,08,20,15,17,24.20
2011,08,20,15,18,24.10
2011,08,20,15,19,24.10
2011,08,20,15,20,24.20
2011,08,20,15,21,24.30
2011,08,20,15,22,24.40
2011,08,20,15,23,24.50
2011,08,20,15,24,24.60
2011,08,20,15,25,24.60
2011,08,20,15,26,24.60
2011,08,20,15,27,24.60
2011,08,20,15,28,24.60
2011,08,20,15,29,24.50
2011,08,20,15,30,24.50
2011,08,20,15,31,24.50
2011,08,20,15,32,24.60
2011,08,20,15,33,24.60
2011,08,20,15,34,24.60
2011,08,20,15,35,24.60
2011,08,20,15,36,24.70
2011,08,20,15,37,24.80
2011,08,20,15,38,24.80
2011,08,20,15,39,24.90
2011,08,20,15,40,25.00
2011,08,20,15,41,25.10
2011,08,20,15,42,25.20
2011,08,20,15,43,25.20
2011,08,20,15,44,25.20
2011,08,20,15,45,25.00
2011,08,20,15,46,24.70
2011,08,20,15,47,24.50
2011,08,20,15,48,24.40
2011,08,20,15,49,24.30
2011,08,20,15,50,24.20
2011,08,20,15,51,24.10
2011,08,20,15,52,24.00
2011,08,20,15,53,23.90
2011,08,20,15,54,23.90
2011,08,20,15,55,23.80
2011,08,20,15,56,23.80
2011,08,20,15,57,23.70
2011,08,20,15,58,23.80
2011,08,20,15,59,23.80
2011,08,20,16,00,23.80
2011,08,20,16,01,23.70
2011,08,20,16,02,23.60
2011,08,20,16,03,23.60
2011,08,20,16,04,23.70
2011,08,20,16,05,23.70
2011,08,20,16,06,23.70
2011,08,20,16,07,23.70
2011,08,20,16,08,23.70
2011,08,20,16,09,23.70
2011,08,20,16,10,23.80
2011,08,20,16,11,23.90
2011,08,20,16,12,24.00
2011,08,20,16,13,24.10
2011,08,20,16,14,24.10
2011,08,20,16,15,24.10
2011,08,20,16,16,24.00
2011,08,20,16,17,23.90
2011,08,20,16,18,23.80
2011,08,20,16,19,23.90
2011,08,20,16,20,24.00
2011,08,20,16,21,24.10
2011,08,20,16,22,23.90
2011,08,20,16,23,23.90
2011,08,20,16,24,23.90
2011,08,20,16,25,23.90
2011,08,20,16,26,24.00
2011,08,20,16,27,24.10
2011,08,20,16,28,24.10
2011,08,20,16,29,24.10
2011,08,20,16,30,24.10
2011,08,20,16,31,24.10
2011,08,20,16,32,24.10
2011,08,20,16,33,24.10
2011,08,20,16,34,24.10
2011,08,20,16,35,24.10
2011,08,20,16,36,24.10
2011,08,20,16,37,24.10
2011,08,20,16,38,24.10
2011,08,20,16,39,24.10
2011,08,20,16,40,24.10
2011,08,20,16,41,24.10
2011,08,20,16,42,24.10
2011,08,20,16,43,24.10
2011,08,20,16,44,24.20
2011,08,20,16,45,24.30
2011,08,20,16,46,24.40
2011,08,20,16,47,24.40
2011,08,20,16,48,24.40
2011,08,20,16,49,24.50
2011,08,20,16,50,24.60
2011,08,20,16,51,24.60
2011,08,20,16,52,24.60
2011,08,20,16,53,24.60
2011,08,20,16,54,24.50
2011,08,20,16,55,24.50
2011,08,20,16,56,24.50
2011,08,20,16,57,24.50
2011,08,20,16,58,24.60
2011,08,20,16,59,24.60
2011,08,20,17,00,24.60
2011,08,20,17,01,24.60
2011,08,20,17,02,24.70
2011,08,20,17,03,24.70
2011,08,20,17,04,24.70
2011,08,20,17,05,24.70
2011,08,20,17,06,24.70
2011,08,20,17,07,24.60
2011,08,20,17,08,24.60
2011,08,20,17,09,24.60
2011,08,20,17,10,24.60
2011,08,20,17,11,24.60
2011,08,20,17,12,24.60
2011,08,20,17,13,24.60
2011,08,20,17,14,24.60
2011,08,20,17,15,24.60
2011,08,20,17,16,24.60
2011,08,20,17,17,24.60
2011,08,20,17,18,24.70
2011,08,20,17,19,24.70